Weather History for Vero Beach, FL

Change the Weather History Date:

Sunday, January 15, 2012

  Actual Average Record
Temperature  
Mean Temperature 50 °F 62 °F  
Max Temperature 67 °F 72 °F 85 °F (1972)
Min Temperature 33 °F 51 °F 29 °F (1948)
Degree Days  
Heating Degree Days 15 5  
Month to date heating degree days 110 75  
Since 1 July heating degree days 150 210  
Cooling Degree Days 0 2  
Month to date cooling degree days 7 30  
Year to date cooling degree days 7 30  
Moisture  
Dew Point 36 °F    
Average Humidity 59    
Maximum Humidity 89    
Minimum Humidity 29    
Precipitation  
Precipitation 0.00 in 0.08 in 2.29 in (1991)
Month to date precipitation 0.00 1.21  
Year to date precipitation 0.00 1.21  
Sea Level Pressure  
Sea Level Pressure 30.40 in    
Wind  
Wind Speed 8 mph (NNW)    
Max Wind Speed 18 mph    
Max Gust Speed 24 mph    
Visibility 10 miles    
Events      
T = Trace of Precipitation, MM = Missing Value Source: NWS Daily Summary

Daily Weather History Graph

Daily Weather History Graph

Search for Another Location

Airport:

Trip Planner

Search our weather history database for the weather conditions in past years. The results will help you decide how hot, cold, wet, or windy it might be!

Date:

Astronomy

Jan. 15, 2012 Rise Set
Actual Time 7:13 AM EST 5:48 PM EST
Civil Twilight 6:48 AM EST 6:13 PM EST
Nautical Twilight 6:19 AM EST 6:42 PM EST
Astronomical Twilight 5:51 AM EST 7:10 PM EST
Moon No Moon Rise 11:12 AM EST (1/15)
Length of Visible Light 11h 25m
Length of Day
10h 34m
Waning Gibbous, 58% of the Moon is Illuminated
Jan 15
Waning Gibbous
Jan 16
Last Quarter
Jan 23
New
Jan 30
First Quarter
Feb 7
Full

Hourly Weather History & Observations

Time (EST) Temp. Windchill Dew Point Humidity Pressure Visibility Wind Dir Wind Speed Gust Speed Precip Events Conditions
12:53 AM 41.0 °F 37.1 °F 32.0 °F 70% 30.37 in 10.0 mi WNW 5.8 mph - N/A   Clear
1:53 AM 39.0 °F 34.0 °F 32.0 °F 76% 30.36 in 10.0 mi WNW 6.9 mph - N/A   Clear
2:53 AM 39.9 °F - 30.9 °F 70% 30.35 in 10.0 mi Calm Calm - N/A   Clear
3:53 AM 37.0 °F 34.5 °F 30.9 °F 79% 30.36 in 10.0 mi West 3.5 mph - N/A   Clear
4:53 AM 35.1 °F 28.6 °F 32.0 °F 89% 30.37 in 10.0 mi WNW 8.1 mph - N/A   Clear
5:53 AM 35.1 °F 32.2 °F 30.0 °F 82% 30.38 in 10.0 mi NW 3.5 mph - N/A   Clear
6:53 AM 35.1 °F 32.2 °F 30.9 °F 85% 30.40 in 10.0 mi NW 3.5 mph - N/A   Clear
7:53 AM 39.0 °F 34.8 °F 32.0 °F 76% 30.42 in 10.0 mi NW 5.8 mph - N/A   Clear
8:53 AM 50.0 °F - 33.1 °F 52% 30.44 in 10.0 mi NNW 8.1 mph - N/A   Clear
9:53 AM 57.0 °F - 34.0 °F 42% 30.47 in 10.0 mi NNW 12.7 mph - N/A   Clear
10:53 AM 63.0 °F - 37.0 °F 38% 30.46 in 10.0 mi NNW 13.8 mph - N/A   Clear
11:53 AM 64.9 °F - 33.1 °F 31% 30.43 in 10.0 mi North 16.1 mph 21.9 mph N/A   Clear
12:53 PM 64.4 °F - 35.6 °F 34% 30.41 in 10.0 mi North 15.0 mph 20.7 mph N/A   Clear
1:53 PM 64.9 °F - 33.1 °F 31% 30.38 in 10.0 mi North 13.8 mph 19.6 mph N/A   Clear
2:53 PM 66.0 °F - 34.0 °F 30% 30.37 in 10.0 mi North 12.7 mph 18.4 mph N/A   Clear
3:53 PM 66.0 °F - 36.0 °F 33% 30.38 in 10.0 mi NNE 9.2 mph 16.1 mph N/A   Clear
4:53 PM 63.0 °F - 39.9 °F 43% 30.39 in 10.0 mi North 9.2 mph - N/A   Clear
5:53 PM 57.9 °F - 39.9 °F 51% 30.39 in 10.0 mi North 4.6 mph - N/A   Clear
6:53 PM 55.9 °F - 41.0 °F 57% 30.40 in 10.0 mi North 3.5 mph - N/A   Clear
7:53 PM 50.0 °F - 41.0 °F 71% 30.42 in 10.0 mi North 3.5 mph - N/A   Clear
8:53 PM 55.0 °F - 42.1 °F 62% 30.43 in 10.0 mi North 6.9 mph - N/A   Clear
9:53 PM 59.0 °F - 39.0 °F 48% 30.44 in 10.0 mi North 9.2 mph - N/A   Clear
10:53 PM 57.0 °F - 41.0 °F 55% 30.44 in 10.0 mi North 8.1 mph - N/A   Clear
11:53 PM 55.0 °F - 46.0 °F 72% 30.43 in 10.0 mi North 5.8 mph - N/A   Partly Cloudy